CW3001 Weather Reports


time (UTC)temp
F
wind
direction
speed
knots
gust
knots
rain 1hr
in
rain 24hr
in
rain mn
in
humidity
%
barometer
mb
20260507064830 49 7 2.6 5.2 0.00 0.01 0.00 80 1015.1
20260507064331 49 20 2.6 5.2 0.00 0.01 0.00 80 1015.1
20260507063831 49 13 2.6 5.2 0.00 0.01 0.00 80 1015.2
20260507063331 48 25 3.5 5.2 0.00 0.01 0.00 80 1015.1
20260507062830 49 27 2.6 5.2 0.00 0.01 0.00 80 1015.1
20260507062331 48 14 2.6 4.3 0.00 0.01 0.00 80 1015.1
20260507061831 48 4 2.6 5.2 0.00 0.01 0.00 80 1014.9
20260507061330 48 10 3.5 5.2 0.00 0.01 0.00 80 1015.0
20260507060830 48 28 2.6 8.7 0.00 0.01 0.00 81 1014.9
20260507060330 48 17 3.5 8.7 0.00 0.01 0.00 81 1014.9
20260507055831 48 4 4.3 7.8 0.00 0.01 0.00 81 1014.9
20260507055330 48 16 3.5 6.1 0.00 0.01 0.00 82 1014.9
20260507055115 48 24 2.6 5.2 0.00 0.01 0.00 82 1014.7
20260507054330 48 38 2.6 4.3 0.00 0.01 0.00 81 1014.7
20260507054119 48 23 1.7 4.3 0.00 0.01 0.00 83 1014.8
20260507053330 48 24 1.7 4.3 0.00 0.01 0.00 82 1014.8
20260507052831 48 7 2.6 4.3 0.00 0.01 0.00 83 1014.7
20260507052615 48 13 1.7 4.3 0.00 0.01 0.00 82 1014.7
20260507051830 48 16 2.6 4.3 0.00 0.01 0.00 82 1014.6
20260507051330 48 30 1.7 4.3 0.00 0.01 0.00 81 1014.6
20260507050830 48 54 1.7 4.3 0.00 0.01 0.00 82 1014.6
20260507050622 48 25 1.7 4.3 0.00 0.01 0.00 82 1014.5
20260507045830 48 28 2.6 4.3 0.00 0.01 0.00 82 1014.4
20260507045644 48 16 2.6 5.2 0.00 0.01 0.00 82 1014.4
20260507045122 48 18 2.6 5.2 0.00 0.01 0.00 81 1014.4
20260507044331 48 20 1.7 3.5 0.00 0.01 0.00 81 1014.3
20260507044118 48 7 2.6 4.3 0.00 0.01 0.00 81 1014.2
20260507043622 48 11 2.6 4.3 0.00 0.01 0.00 81 1014.2
20260507042829 48 51 3.5 4.3 0.00 0.01 0.00 81 1014.2
20260507042331 48 11 1.7 5.2 0.00 0.01 0.00 81 1014.1
20260507041830 48 23 1.7 5.2 0.00 0.01 0.00 81 1014.0
20260507041618 48 25 1.7 3.5 0.00 0.01 0.00 82 1014.0
20260507040829 48 13 0.9 3.5 0.00 0.01 0.00 82 1013.9
20260507040330 49 13 1.7 4.3 0.00 0.01 0.00 82 1013.9
20260507035830 49 18 1.7 4.3 0.00 0.01 0.00 82 1013.8
20260507035331 49 0 2.6 4.3 0.00 0.01 0.00 81 1013.8
20260507034832 49 35 1.7 4.3 0.00 0.01 0.00 81 1013.8
20260507034641 49 37 1.7 4.3 0.00 0.01 0.00 81 1013.7
20260507033830 49 28 1.7 4.3 0.00 0.01 0.00 81 1013.7
20260507033438 49 16 1.7 3.5 0.00 0.01 0.00 81 1013.7
20260507033400 49 30 1.7 4.3 0.00 0.01 0.00 81 1013.7
20260507032346 49 27 1.7 3.5 0.00 0.01 0.00 81 1013.7
20260507031830 49 21 1.7 2.6 0.00 0.02 0.00 81 1013.7
20260507031632 49 0 1.7 2.6 0.00 0.02 0.00 81 1013.7
20260507030830 49 41 0.0 0.0 0.00 0.02 0.00 82 1013.6
20260507030330 49 41 0.0 0.0 0.00 0.02 0.00 81 1013.7
20260507025830 49 44 0.0 0.0 0.00 0.02 0.00 82 1013.6
20260507025330 49 45 0.0 0.0 0.00 0.02 0.00 82 1013.6
20260507025121 50 44 0.0 0.0 0.00 0.02 0.00 82 1013.5
20260507024331 50 45 0.0 0.0 0.00 0.02 0.00 82 1013.6
20260507023837 50 32 0.0 0.9 0.00 0.02 0.00 81 1013.5
20260507023624 50 31 0.0 2.6 0.00 0.02 0.00 82 1013.4
20260507023130 50 30 1.7 2.6 0.00 0.02 0.00 81 1013.4
20260507022330 50 27 0.9 2.6 0.00 0.02 0.00 81 1013.4
20260507022140 50 27 0.0 2.6 0.00 0.02 0.00 81 1013.4
20260507021330 50 14 0.0 2.6 0.00 0.02 0.00 82 1013.2
20260507020831 50 13 1.7 2.6 0.00 0.02 0.00 82 1013.2
20260507020330 50 13 0.0 0.0 0.00 0.02 0.00 81 1013.2
20260507020129 50 11 0.0 2.6 0.00 0.02 0.00 81 1013.1
20260507015330 50 13 0.9 3.5 0.00 0.02 0.00 81 1013.1
20260507014829 50 11 0.9 3.5 0.00 0.02 0.00 80 1013.0
20260507014330 50 18 1.7 4.3 0.00 0.02 0.00 80 1013.0
20260507013830 50 17 1.7 4.3 0.00 0.02 0.00 80 1013.0
20260507013330 50 17 2.6 3.5 0.00 0.02 0.00 80 1013.0
20260507012830 50 343 0.9 2.6 0.00 0.02 0.00 80 1013.0
20260507012331 50 8 0.9 1.7 0.00 0.02 0.00 79 1013.0
20260507012207 50 10 0.0 0.0 0.00 0.02 0.00 79 1013.0
20260507011331 50 10 0.0 0.0 0.00 0.02 0.00 78 1012.9
20260507010831 50 11 0.0 0.0 0.00 0.02 0.00 78 1013.0
20260507010330 50 11 0.0 0.0 0.00 0.02 0.00 78 1012.9
20260507010134 50 11 0.0 0.0 0.00 0.02 0.00 78 1012.9
20260507005332 50 11 0.0 0.0 0.00 0.02 0.00 77 1013.0
20260507004831 50 11 0.0 0.0 0.00 0.02 0.00 77 1013.0
20260507004330 50 11 0.0 0.0 0.00 0.02 0.00 76 1012.9
20260507003833 50 11 0.0 0.0 0.00 0.02 0.00 77 1012.9
20260507003331 50 11 0.0 0.0 0.00 0.02 0.00 77 1012.9
20260507002829 50 11 0.0 0.0 0.00 0.02 0.00 77 1012.8
20260507002330 50 13 0.0 0.0 0.00 0.02 0.00 77 1012.8
20260507001831 50 13 0.0 0.0 0.00 0.02 0.00 77 1012.7
20260507001331 50 13 0.0 0.0 0.00 0.02 0.00 77 1012.8
20260507000830 51 13 0.0 0.0 0.00 0.02 0.00 76 1012.8
20260507000331 51 13 0.0 0.0 0.00 0.02 0.00 76 1012.8
20260506235831 51 13 0.0 0.0 0.00 0.02 0.00 76 1012.8
20260506235331 51 13 0.0 0.0 0.00 0.02 0.00 75 1012.8
20260506235141 51 13 0.0 0.9 0.00 0.02 0.00 76 1012.7
20260506234330 51 14 0.0 0.9 0.00 0.02 0.00 75 1012.8
20260506234133 51 14 0.0 0.0 0.00 0.02 0.00 75 1012.7
20260506233329 51 14 0.0 0.0 0.00 0.02 0.00 75 1012.7
20260506233147 51 14 0.0 2.6 0.00 0.02 0.00 74 1012.7
20260506232329 51 14 0.9 2.6 0.00 0.02 0.00 74 1012.5
20260506231831 51 14 1.7 2.6 0.00 0.02 0.00 73 1012.7
20260506231329 51 16 1.7 2.6 0.00 0.02 0.00 72 1012.7
20260506230830 51 16 0.9 4.3 0.00 0.02 0.00 72 1012.6
20260506230330 51 11 2.6 5.2 0.00 0.02 0.00 72 1012.6
20260506225829 51 13 2.6 5.2 0.00 0.02 0.00 72 1012.5
20260506225329 51 17 2.6 5.2 0.00 0.02 0.00 72 1012.5
20260506224827 51 16 2.6 4.3 0.00 0.02 0.00 72 1012.5
20260506224330 51 341 1.7 4.3 0.00 0.02 0.00 72 1012.5
20260506223828 51 10 1.7 5.2 0.00 0.02 0.00 72 1012.5
20260506223330 51 6 3.5 5.2 0.00 0.02 0.00 73 1012.5
20260506223118 51 17 2.6 5.2 0.00 0.02 0.00 74 1012.4
20260506222329 51 13 2.6 4.3 0.00 0.02 0.00 74 1012.4
20260506221828 51 17 2.6 4.3 0.00 0.02 0.00 74 1012.5
20260506221348 51 13 2.6 4.3 0.00 0.02 0.00 75 1012.4
20260506220827 51 20 2.6 4.3 0.00 0.02 0.00 76 1012.4
20260506220327 51 20 2.6 3.5 0.00 0.02 0.00 76 1012.4
20260506215826 51 21 1.7 3.5 0.00 0.02 0.02 76 1012.4
20260506215329 51 23 2.6 3.5 0.00 0.02 0.02 75 1012.3
20260506215116 51 20 1.7 3.5 0.00 0.02 0.02 75 1012.3
20260506214327 51 20 2.6 3.5 0.00 0.02 0.02 75 1012.4
20260506213828 51 17 2.6 4.3 0.00 0.02 0.02 75 1012.3
20260506213327 51 18 2.6 4.3 0.00 0.02 0.02 75 1012.3
20260506212826 51 20 2.6 3.5 0.00 0.02 0.02 75 1012.3
20260506212326 51 24 1.7 3.5 0.00 0.02 0.02 75 1012.2
20260506211826 51 21 2.6 3.5 0.00 0.02 0.02 74 1012.2
20260506211326 51 14 1.7 3.5 0.00 0.02 0.02 75 1012.2
20260506210826 51 21 2.6 3.5 0.00 0.02 0.02 76 1012.1
20260506210325 51 23 0.0 0.0 0.00 0.02 0.02 76 1012.0
20260506205826 51 23 0.0 0.0 0.00 0.02 0.02 76 1012.1
20260506205327 51 23 0.0 0.0 0.00 0.02 0.02 74 1012.0
20260506204825 51 39 0.0 0.0 0.00 0.02 0.02 74 1012.0
20260506204617 51 39 0.0 0.0 0.00 0.02 0.02 74 1012.0
20260506204113 51 39 0.0 0.0 0.00 0.02 0.02 73 1012.0
20260506203325 51 39 0.0 0.0 0.00 0.02 0.02 74 1012.0
20260506202826 51 39 0.0 0.0 0.00 0.02 0.02 74 1011.9
20260506202618 51 39 0.0 0.0 0.00 0.02 0.02 73 1011.8
20260506202119 51 39 0.0 0.0 0.00 0.02 0.02 73 1011.9
20260506201340 51 39 0.0 0.9 0.00 0.02 0.02 72 1011.8
20260506200824 51 24 0.0 3.5 0.00 0.02 0.02 73 1011.8
20260506200339 51 16 1.7 3.5 0.00 0.02 0.02 72 1011.7
20260506195831 51 16 0.0 1.7 0.00 0.02 0.02 73 1011.7
20260506195327 52 13 0.0 1.7 0.00 0.02 0.02 73 1011.7
20260506194825 52 49 0.9 3.5 0.00 0.02 0.02 71 1011.8
20260506194324 52 52 1.7 4.3 0.00 0.02 0.02 70 1011.6
20260506194144 52 45 2.6 4.3 0.00 0.02 0.02 70 1011.6
20260506193323 52 56 1.7 6.1 0.00 0.02 0.02 70 1011.5
20260506193134 52 44 3.5 6.1 0.00 0.02 0.02 70 1011.5
20260506192323 52 44 1.7 4.3 0.00 0.02 0.02 71 1011.5
20260506191823 52 48 1.7 4.3 0.00 0.02 0.02 71 1011.5
20260506191324 52 42 2.6 6.1 0.00 0.02 0.02 70 1011.4
20260506190825 52 21 3.5 6.1 0.00 0.02 0.02 71 1011.3
20260506190323 52 58 2.6 6.1 0.00 0.02 0.02 71 1011.2
20260506185823 52 49 2.6 6.1 0.00 0.02 0.02 70 1011.2
20260506185323 52 48 4.3 6.1 0.00 0.02 0.02 70 1011.1
20260506185115 52 56 3.5 5.2 0.00 0.02 0.02 70 1010.9
20260506184617 52 49 2.6 6.1 0.00 0.02 0.02 70 1011.0
20260506184135 52 47 3.5 6.1 0.00 0.02 0.02 70 1011.0
20260506183322 52 48 2.6 6.1 0.00 0.02 0.02 70 1011.0
20260506182823 52 42 2.6 6.1 0.00 0.02 0.02 72 1010.8
20260506182332 52 28 2.6 6.1 0.00 0.02 0.02 71 1010.8
20260506181821 52 35 2.6 5.2 0.00 0.02 0.02 72 1010.9
20260506181331 52 30 2.6 5.2 0.00 0.02 0.02 71 1010.7
20260506180821 52 52 3.5 7.8 0.00 0.02 0.02 71 1010.7
20260506180322 52 52 3.5 8.7 0.00 0.02 0.02 72 1010.6
20260506175822 52 30 4.3 8.7 0.00 0.02 0.02 72 1010.6
20260506175322 52 39 3.5 6.1 0.00 0.02 0.02 72 1010.5
20260506175029 52 38 3.5 9.6 0.00 0.02 0.02 72 1010.3
20260506174938 52 34 3.5 6.1 0.00 0.02 0.02 73 1010.4
20260506174407 52 54 3.5 9.6 0.00 0.02 0.02 73 1010.3
20260506173319 52 51 4.3 9.6 0.00 0.02 0.02 73 1010.2
20260506172820 52 32 3.5 9.6 0.00 0.02 0.02 73 1010.2
20260506172321 52 42 4.3 7.8 0.00 0.02 0.02 73 1010.2
20260506171819 52 51 3.5 11.3 0.00 0.02 0.02 74 1010.2
20260506171320 52 69 4.3 12.2 0.00 0.02 0.02 73 1010.1
20260506170821 52 38 6.1 13.0 0.00 0.02 0.02 73 1010.1
20260506170319 52 82 7.0 14.8 0.00 0.02 0.02 72 1010.1
20260506165821 53 8 7.8 14.8 0.00 0.02 0.02 71 1010.1
20260506165321 53 69 7.8 11.3 0.00 0.02 0.02 70 1010.0
20260506164819 53 37 5.2 10.4 0.00 0.02 0.02 69 1010.1
20260506164320 53 35 5.2 12.2 0.00 0.02 0.02 70 1009.9
20260506163820 53 28 6.1 12.2 0.00 0.02 0.02 69 1009.7
20260506163321 54 41 4.3 11.3 0.00 0.02 0.02 68 1009.8
20260506162819 54 6 5.2 9.6 0.00 0.02 0.02 66 1009.8
20260506162332 54 24 4.3 9.6 0.00 0.02 0.02 66 1009.7
20260506162146 54 59 5.2 9.6 0.00 0.02 0.02 65 1009.7
20260506161318 54 54 5.2 9.6 0.00 0.02 0.02 65 1009.8
20260506160836 54 47 5.2 9.6 0.00 0.02 0.02 67 1009.7
20260506160628 54 39 4.3 10.4 0.00 0.02 0.02 66 1009.8
20260506155819 54 35 6.1 11.3 0.00 0.02 0.02 64 1009.8
20260506155318 54 47 5.2 11.3 0.00 0.02 0.02 64 1009.7
20260506154820 54 39 7.0 12.2 0.00 0.02 0.02 63 1009.8
20260506154649 55 47 7.0 12.2 0.00 0.02 0.02 63 1009.8
20260506153818 55 24 6.1 13.9 0.00 0.02 0.02 63 1009.7
20260506153318 55 48 8.7 13.9 0.00 0.02 0.02 63 1009.6
20260506152817 55 25 7.0 13.0 0.00 0.02 0.02 63 1009.6
20260506152317 55 31 6.1 13.0 0.00 0.02 0.02 62 1009.6
20260506151817 55 24 7.8 13.0 0.00 0.02 0.02 62 1009.6
20260506151317 55 34 7.0 11.3 0.00 0.02 0.02 61 1009.5
20260506151104 55 27 6.1 11.3 0.00 0.02 0.02 62 1009.6
20260506150315 56 34 5.2 13.0 0.00 0.02 0.02 60 1009.4
20260506145925 56 45 7.8 14.8 0.00 0.02 0.02 58 1009.4
20260506145905 56 45 5.2 14.8 0.00 0.02 0.02 60 1009.5
20260506144815 56 34 6.1 13.9 0.00 0.02 0.02 59 1009.4
20260506144316 56 24 5.2 13.9 0.00 0.02 0.02 59 1009.3
20260506143818 56 47 7.0 13.0 0.00 0.02 0.02 58 1009.3
20260506143331 56 39 5.2 12.2 0.00 0.02 0.02 58 1009.4
20260506142832 56 35 5.2 12.2 0.00 0.02 0.02 63 1009.2
20260506142315 56 24 3.5 10.4 0.00 0.02 0.02 63 1009.3
20260506141815 56 13 5.2 10.4 0.00 0.02 0.02 62 1009.2
20260506141317 57 45 6.1 11.3 0.00 0.02 0.02 63 1009.2
20260506140816 57 52 5.2 12.2 0.00 0.02 0.02 65 1009.2
20260506140315 57 31 6.1 13.0 0.00 0.02 0.02 62 1009.3
20260506140141 57 18 7.0 13.9 0.00 0.02 0.02 63 1009.2
20260506135315 57 71 7.8 13.9 0.00 0.02 0.02 61 1009.2
20260506134816 57 23 7.8 13.9 0.00 0.02 0.02 64 1009.0
20260506134314 58 25 6.1 9.6 0.00 0.02 0.02 64 1009.1
20260506133814 58 41 7.0 13.0 0.00 0.02 0.02 61 1009.2
20260506133314 58 100 7.0 13.0 0.00 0.02 0.02 60 1009.1
20260506132814 58 34 6.1 13.9 0.00 0.02 0.02 61 1009.1
20260506132315 58 44 7.0 13.9 0.00 0.02 0.02 59 1009.1
20260506131814 58 0 5.2 13.0 0.00 0.02 0.02 61 1008.9
20260506131313 59 61 7.8 13.0 0.00 0.02 0.02 57 1009.0
20260506130817 58 51 7.0 13.0 0.00 0.02 0.02 60 1008.9
20260506130405 58 100 5.2 13.0 0.00 0.02 0.02 57 1008.7
20260506130347 59 39 7.0 13.0 0.00 0.02 0.02 57 1008.7
20260506125313 58 21 6.1 12.2 0.00 0.02 0.02 56 1008.7
20260506124813 58 51 4.3 9.6 0.00 0.02 0.02 57 1008.7
20260506124436 58 68 4.3 11.3 0.00 0.02 0.02 58 1008.7
20260506124358 58 37 4.3 11.3 0.00 0.02 0.02 58 1008.8
20260506123314 58 76 6.1 11.3 0.00 0.02 0.02 55 1008.8
20260506122814 58 56 5.2 11.3 0.01 0.02 0.02 57 1008.7
20260506122600 58 0 5.2 13.0 0.01 0.02 0.02 58 1008.7
20260506121811 58 7 5.2 13.0 0.01 0.02 0.02 59 1008.7
20260506121312 58 41 5.2 9.6 0.01 0.02 0.02 62 1008.7
20260506120813 58 37 6.1 10.4 0.01 0.02 0.02 61 1008.6
20260506120313 58 63 5.2 10.4 0.01 0.02 0.02 61 1008.6
20260506115811 58 20 5.2 11.3 0.01 0.01 0.02 65 1008.6
20260506115630 58 73 5.2 11.3 0.01 0.01 0.02 60 1008.5
20260506114811 58 25 6.1 9.6 0.01 0.01 0.02 62 1008.4
20260506114312 58 44 5.2 10.4 0.01 0.01 0.02 62 1008.5
20260506113812 58 41 5.2 12.2 0.01 0.01 0.02 64 1008.4
20260506113311 57 14 7.0 13.0 0.01 0.01 0.01 65 1008.5
20260506112811 57 37 7.0 13.9 0.00 0.01 0.01 64 1008.4
20260506112349 57 38 6.1 11.3 0.00 0.01 0.01 66 1008.5
20260506112335 57 31 6.1 13.9 0.00 0.01 0.01 63 1008.6
20260506111329 57 0 7.0 11.3 0.00 0.01 0.01 67 1008.5
20260506111057 57 20 7.8 11.3 0.00 0.01 0.01 66 1008.5
20260506110313 56 25 6.1 11.3 0.00 0.01 0.01 68 1008.5
20260506105810 56 35 6.1 11.3 0.00 0.01 0.01 67 1008.7
20260506105323 57 10 6.1 11.3 0.00 0.01 0.01 70 1008.5
20260506105155 57 32 4.3 12.2 0.00 0.01 0.01 69 1008.6
20260506104309 57 18 6.1 12.2 0.00 0.01 0.01 69 1008.4
20260506103810 57 18 6.1 12.2 0.00 0.01 0.01 69 1008.4
20260506103310 57 13 5.2 11.3 0.00 0.01 0.01 67 1008.4
20260506103052 57 35 7.0 11.3 0.00 0.01 0.01 68 1008.5
20260506102310 56 23 5.2 12.2 0.00 0.01 0.01 70 1008.4
20260506102052 56 23 5.2 12.2 0.00 0.01 0.01 72 1008.3
20260506101309 56 59 4.3 8.7 0.00 0.01 0.01 72 1008.3
20260506100809 56 0 3.5 11.3 0.00 0.01 0.01 74 1008.4
20260506100309 56 31 6.1 11.3 0.00 0.01 0.01 74 1008.4
20260506095822 56 24 5.2 9.6 0.00 0.01 0.01 76 1008.2
20260506095309 56 7 5.2 9.6 0.00 0.01 0.01 77 1008.2
20260506094808 56 11 7.0 9.6 0.00 0.01 0.01 77 1008.2
20260506094557 55 31 4.3 7.8 0.00 0.01 0.01 78 1008.3
20260506093809 55 7 3.5 7.8 0.00 0.01 0.01 79 1008.3
20260506093307 55 25 4.3 11.3 0.00 0.01 0.01 80 1008.3
20260506092807 55 20 5.2 11.3 0.00 0.01 0.01 80 1008.2
20260506092307 54 10 6.1 12.2 0.00 0.01 0.01 80 1008.2
20260506091813 54 3 7.0 12.2 0.00 0.01 0.01 80 1008.2
20260506091551 54 11 6.1 9.6 0.00 0.01 0.01 81 1008.3
20260506090806 54 31 5.2 8.7 0.00 0.01 0.01 81 1008.2
20260506090307 54 7 4.3 8.7 0.00 0.01 0.01 82 1008.3
20260506085807 54 10 4.3 8.7 0.00 0.01 0.01 82 1008.2
20260506085308 54 24 5.2 9.6 0.00 0.01 0.01 82 1008.2
20260506085049 54 28 4.3 9.6 0.00 0.01 0.01 82 1008.2
20260506084306 53 16 4.3 11.3 0.00 0.01 0.01 82 1008.1
20260506084051 53 42 6.1 11.3 0.00 0.01 0.01 82 1008.0
20260506083308 53 18 5.2 8.7 0.00 0.01 0.01 83 1008.1
20260506082808 53 4 5.2 9.6 0.00 0.01 0.01 84 1007.9
20260506082306 53 31 4.3 10.4 0.00 0.01 0.01 85 1008.0
20260506081806 52 38 3.5 10.4 0.00 0.01 0.01 85 1008.0
20260506081307 52 0 3.5 9.6 0.00 0.01 0.01 86 1008.1
20260506080806 52 18 6.1 9.6 0.00 0.01 0.01 86 1008.2
20260506080307 51 0 3.5 8.7 0.00 0.01 0.01 87 1008.1
20260506073304 50 18 4.3 8.7 0.00 0.01 0.01 88 1007.9
20260506072804 50 11 4.3 8.7 0.00 0.01 0.01 88 1007.9
20260506072305 50 6 4.3 8.7 0.00 0.01 0.01 89 1007.9
20260506071804 50 17 4.3 8.7 0.00 0.01 0.01 89 1008.0
20260506071522 49 0 5.2 7.8 0.00 0.01 0.01 90 1008.0
20260506071412 50 3 5.2 8.7 0.00 0.01 0.01 89 1008.0
20260506071141 50 13 4.3 8.7 0.00 0.01 0.01 89 1007.9